Hourly Data Report for October 21, 2014

All times are specified in Local Standard Time (LST). Add 1 hour to adjust for Daylight Saving Time where and when it is observed.

SAINT JOHN A
NEW BRUNSWICK

45°18'58.000" N
65°53'24.000" W
108.80 m
8104901
71609
YSJ

Download Data

Hourly Data (October 2014)
Hourly Data Report for October 21, 2014
Temp Definition
°C
Dew Point Temp Definition
°C
Rel Hum Definition
%
Wind Dir Definition
10's deg

Wind Spd Definition
km/h
Visibility Definition
km
Stn Press Definition
kPa
Hmdx Definition


Wind Chill Definition


Weather Definition


TIME
00:00 Legend Double Dagger 1.6 -2.0 77 29 5 24.1 100.23     LegendNANA
01:00 Legend Double Dagger 0.1 -1.8 87 36 3 24.1 100.30     LegendNANA
02:00 Legend Double Dagger 0.9 -0.4 91 0 1 24.1 100.32     Mostly Cloudy
03:00 Legend Double Dagger -0.7 -1.6 94 16 4 24.1 100.37   -2 LegendNANA
04:00 Legend Double Dagger -2.4 -3.0 96 36 2 24.1 100.42   -3 LegendNANA
05:00 Legend Double Dagger -1.8 -2.4 96 3 4 24.1 100.50   -3 Mainly Clear
06:00 Legend Double Dagger -1.8 -2.4 96 36 2 24.1 100.56   -3 LegendNANA
07:00 Legend Double Dagger -1.8 -2.1 98 36 1 24.1 100.62   -2 LegendNANA
08:00 Legend Double Dagger 1.3 0.4 94 36 2 24.1 100.64     Mostly Cloudy
09:00 Legend Double Dagger 4.7 1.0 77 6 8 24.1 100.70     LegendNANA
10:00 Legend Double Dagger 7.0 -0.9 57 6 6 24.1 100.72     LegendNANA
11:00 Legend Double Dagger 9.9 -1.5 45 0 1 24.1 100.73     Mostly Cloudy
12:00 Legend Double Dagger 12.3 -0.5 41 18 10 24.1 100.73     LegendNANA
13:00 Legend Double Dagger 12.1 -0.4 42 24 8 24.1 100.76     LegendNANA
14:00 Legend Double Dagger 12.1 1.2 47 20 10 24.1 100.78     Cloudy
15:00 Legend Double Dagger 11.7 2.0 51 36 3 24.1 100.77     LegendNANA
16:00 Legend Double Dagger 11.4 3.0 56 36 9 24.1 100.80     LegendNANA
17:00 Legend Double Dagger 10.1 4.1 66 3 7 24.1 100.86     Cloudy
18:00 Legend Double Dagger 8.9 4.4 73 3 10 24.1 100.89     LegendNANA
19:00 Legend Double Dagger 8.0 4.2 77 5 7 24.1 100.91     Rain Showers
20:00 Legend Double Dagger 8.0 4.4 78 1 4 24.1 100.97     Rain Showers
21:00 Legend Double Dagger 8.2 4.8 79 6 8 24.1 101.02     LegendNANA
22:00 Legend Double Dagger 8.8 5.4 79 4 10 24.1 101.07     Rain Showers
23:00 Legend Double Dagger 8.2 6.2 87 4 10 24.1 101.10     Rain Showers

Notes on Data Quality.

Legend

  • E = Estimated
  • M = Missing
  • NA = Not Available
  • ‡ = Partner data that is not subject to review by the National Climate Archives
Date modified: